Regional Weather Roundup
Issued by NWS

Home | Current Version | Previous Version | Graphics & Text | Print | Product List | Glossary On
Versions: 1 2 3 4 5 6 7 8 9 10 11 12 13 14 15 16 17 18 19 20 21 22 23 24 25 26 27 28 29 30 31 32 33 34 35 36 37 38 39 40 41 42 43 44 45 46 47 48 49 50
929
ASUS45 KBOI 221010
RWRID

IDAHO REGIONAL WEATHER ROUNDUP
NATIONAL WEATHER SERVICE BOISE ID
400 AM MDT SUN OCT 22 2017

NOTE: "FAIR" INDICATES FEW OR NO CLOUDS BELOW 12000 FEET
WITH NO SIGNIFICANT WEATHER AND/OR OBSTRUCTIONS TO VISIBILITY

IDZ012-014-221100-
SOUTHWEST IDAHO


CITY           SKY/WX    TMP DP  RH WIND       PRES   REMARKS
BOISE          CLOUDY    48  39  71 SE14      30.20S
CALDWELL       CLOUDY    49  42  77 E13       30.17F
MOUNTAIN HOME  CLOUDY    44  44 100 E12       30.22R
$$

IDZ016-017-221100-
SOUTHCENTRAL IDAHO


CITY           SKY/WX    TMP DP  RH WIND       PRES   REMARKS
BURLEY         MOCLDY    43  37  79 SW12      30.25R
JEROME         PTCLDY    38  38 100 NE10      30.25F WCI  31
TWIN FALLS     PTCLDY    44  39  82 SW10      30.25S
$$

IDZ019>023-221100-
SOUTHEAST IDAHO


CITY           SKY/WX    TMP DP  RH WIND       PRES   REMARKS
IDAHO FALLS    CLOUDY    42  36  79 S13       30.23F
POCATELLO      CLOUDY    48  33  56 SW14      30.25F
REXBURG        CLOUDY    39  33  79 S15       30.22S WCI  31
$$

IDZ006-010-011-018-031-032-221100-
CENTRAL IDAHO MOUNTAINS


CITY           SKY/WX    TMP DP  RH WIND       PRES   REMARKS
MCCALL         CLOUDY    40  37  89 S15G23    30.12F WCI  32
HAILEY         PTCLDY    34  32  93 CALM      30.25F
STANLEY          N/A     38  35  89 S12G18    30.19S WCI  30
SALMON         CLOUDY    40  35  83 N5        30.08F
CHALLIS        CLOUDY    39  32  76 CALM      30.11F
$$

IDZ002-004-006-007-026-221100-
NORTHERN IDAHO


CITY           SKY/WX    TMP DP  RH WIND       PRES   REMARKS
LEWISTON       CLOUDY    56  44  64 S28G37    29.85S
LOWELL           N/A     42  41  96 N3        29.98F
COEUR D`ALENE  LGT RAIN  51  47  86 SW16G25   29.76R
MULLAN PASS    FRZ RAIN  33  31  92 S12G32    29.76F VSB 1/2 WCI  24
$$




USA.gov is the U.S. government's official web portal to all federal, state and local government web resources and services.